星链-32371 (STARLINK-32371)

导读 | 豆包AI

STARLINK-32371是美国SpaceX星链星座中的一颗卫星,于2024年8月31日发射升空。作为星链网络的组成部分,它主要为全球提供高速互联网服务,尤其覆盖偏远地区。卫星入轨后将参与星座组网,提升星链系统的服务容量与覆盖能力,支撑低轨卫星互联网的持续运营与拓展。

基本信息
目录编号:
60916
目录名称:
STARLINK-32371
国际标识:
2024-154P
轨道中心:
EARTH
卫星名称:
星链-32371
卫星全名:
星链-32371 (STARLINK-32371)
卫星状态:
在轨 (已飞行561 天)
发射日期:
2024-08-31 UTC
国别 :
美国 (US)
星等 :
--
轨道信息
数据来源 国际轨道数据
星历时间: 2026-03-15T13:35:42+0800
12小时前
查看轨道信息
半长轴: 6853.379km
偏心率: 0.0001046
轨道倾角: 53.158°
近地点辐角 99.419°
升交点赤经 258.094°
平近点角 260.693°
近地点: 474.525km
远地点: 475.959km
周期: 94.106分钟
每日圈数: 15.301912
详细信息
固有亮度:
5
最大亮度:
2.5
卫星平台:
Starlink V1.0
覆盖范围:
全球
运营商:
太空探索技术公司
运营商所在国:
美国
制造商(研发单位):
太空探索技术公司
制造商所在国:
美国
使用方式:
暂无
卫星简介
Starlink 计划是 SpaceX 推出的全球卫星互联网项目,通过发射低轨道卫星,为全球尤其是偏远地区提供高速、低延迟的互联网服务。自 2019 年起,Starlink 已部署数千颗卫星,旨在缩小全球数字鸿沟,推动互联网普及。该项目还为军事、航空等行业提供通信支持,带来广泛经济效益。
2D轨道图
3D轨道图
轨道高度分析图
轨道倾角分析图
轨道综合分析图
查看轨道综合分析图